This is the latest recevied weather packets stored in our database for station/object 9A3XK-13. If no packets are shown the sender has not sent any weather packets the latest 1 day(s).
| Time | Temp. | Humidity | Pressure | Rain* | Wind** | Luminosity | Snow |
|---|---|---|---|---|---|---|---|
| 1778051717 | 17.78° C | 57% | 1012.2 hPa | 0 mm | - | 294 W/m² | - |
| 1778051416 | 17.78° C | 58% | 1012.2 hPa | 0 mm | - | 201 W/m² | - |
| 1778051116 | 17.78° C | 61% | 1012.2 hPa | 0 mm | - | 176 W/m² | - |
| 1778049619 | 16.67° C | 66% | 1012.4 hPa | 0 mm | - | 192 W/m² | - |
| 1778049316 | 16.67° C | 67% | 1012.4 hPa | 0 mm | - | 221 W/m² | - |
| 1778049018 | 16.11° C | 68% | 1012.3 hPa | 0 mm | - | 198 W/m² | - |
| 1778048417 | 15.56° C | 69% | 1012.3 hPa | 0 mm | - | 175 W/m² | - |
| 1778046916 | 15° C | 70% | 1012.4 hPa | 0 mm | - | 105 W/m² | - |
| 1778046616 | 15° C | 69% | 1012.4 hPa | 0 mm | - | 95 W/m² | - |
| 1778046316 | 15° C | 69% | 1012.4 hPa | 0 mm | - | 91 W/m² | - |
| 1778046016 | 14.44° C | 69% | 1012.3 hPa | 0 mm | - | 91 W/m² | - |
| 1778045716 | 14.44° C | 70% | 1012.3 hPa | 0 mm | - | 119 W/m² | - |
| 1778044816 | 13.89° C | 71% | 1012.3 hPa | 0 mm | - | 89 W/m² | - |
| 1778044519 | 13.89° C | 73% | 1012.3 hPa | 0 mm | - | 79 W/m² | - |
| 1778044216 | 13.89° C | 73% | 1012.4 hPa | 0 mm | - | 65 W/m² | - |
| 1778043916 | 13.89° C | 73% | 1012.4 hPa | 0 mm | - | 54 W/m² | - |
| 1778043617 | 13.89° C | 73% | 1012.4 hPa | 0 mm | - | 54 W/m² | - |
| 1778043316 | 13.89° C | 73% | 1012.4 hPa | 0 mm | - | 54 W/m² | - |
| 1778043016 | 13.33° C | 73% | 1012.3 hPa | 0 mm | - | 53 W/m² | - |
| 1778042716 | 13.33° C | 73% | 1012.3 hPa | 0 mm | - | 45 W/m² | - |
| 1778042416 | 13.33° C | 73% | 1012.3 hPa | 0 mm | - | 42 W/m² | - |
| 1778042116 | 13.33° C | 73% | 1012.3 hPa | 0 mm | - | 44 W/m² | - |
| 1778041816 | 13.33° C | 74% | 1012.3 hPa | 0 mm | - | 44 W/m² | - |
| 1778041516 | 13.33° C | 74% | 1012.3 hPa | 0 mm | - | 41 W/m² | - |
| 1778040916 | 13.33° C | 73% | 1012.2 hPa | 0 mm | - | 35 W/m² | - |
* Rain latest hour (hover to see other rain measurements)
** Current wind speed in m/s (hover to see current wind gust speed)